Regional Weather Roundup
Issued by NWS

Home | Current Version | Previous Version | Graphics & Text | Print | Product List | Glossary On
Versions: 1 2 3 4 5 6 7 8 9 10 11 12 13 14 15 16 17 18 19 20 21 22 23 24 25 26 27 28 29 30 31 32 33 34 35 36 37 38 39 40 41 42 43 44 45 46 47 48 49 50
000
ASUS45 KABQ 012201
RWRNM
WEATHER ROUNDUP FOR NEW MEXICO
NATIONAL WEATHER SERVICE ALBUQUERQUE NM
300 PM MST SUN FEB 01 2015

NOTE: "FAIR" MEANS FEW OR NO CLOUDS BELOW 12,000 FEET AGL WITH NO
       SIGNIFICANT WEATHER OR OBSTRUCTIONS TO VISION.

      THIS PRODUCT IS RELEASED AS TWO VERSIONS.  ONE VERSION NEAR
      THE TOP OF THE HOUR CONTAINING PRELIMINARY DATA FROM ALBUQUERQUE
      AND OTHER STATIONS.  A FINAL VERSION WITH ADDITIONAL DATA IS
      ISSUED ABOUT 10 MINUTES AFTER THE HOUR.

NMZ501-503-504-510>518-012300-
NORTHWEST PLATEAU/NORTHCENTRAL MOUNTAINS

CITY           SKY/WX    TMP DP  RH WIND       PRES   REMARKS
FARMINGTON     SUNNY     48  29  47 W20G28    30.09F
SANTA FE       SUNNY     41  26  55 W6        30.08F
TAOS           SUNNY     36  14  41 CALM      30.10R

$$
NMZ402-403-502-505>509-012300-
WESTCENTRAL MOUNTAINS/SOUTHWEST MOUNTAINS

CITY           SKY/WX    TMP DP  RH WIND       PRES   REMARKS
GALLUP         SUNNY     46   7  20 CALM      30.15S
SILVER CITY    MOSUNNY   54  37  54 S10       30.11S

$$
NMZ407-409-411-412-012300-
SOUTHERN DESERTS

CITY           SKY/WX    TMP DP  RH WIND       PRES   REMARKS
DEMING         SUNNY     56  42  59 W7        30.08S
HOLLOMAN AFB   MOSUNNY   57  37  47 W6        30.06R
ALAMOGORDO     MOSUNNY   57  37  47 SW7       30.07S
T OR C         SUNNY     54  35  48 SE6       30.06F

$$
NMZ519>523-012300-
CENTRAL VALLEYS/CENTRAL HIGHLANDS

CITY           SKY/WX    TMP DP  RH WIND       PRES   REMARKS
ALBUQUERQUE    MOSUNNY   49  29  46 VRB3      30.10F
DOUBLE EAGLE   SUNNY     45  30  57 VRB6      30.11F
CLINES CORNERS PTSUNNY   40  29  64 W10       30.07S WCI  33
BELEN          FAIR      51  30  43 W5        30.09F
SOCORRO        NOT AVBL

$$
NMZ524>526-539-540-012300-
SOUTHCENTRAL MOUNTAINS

CITY           SKY/WX    TMP DP  RH WIND       PRES   REMARKS
RUIDOSO        NOT AVBL

$$
NMZ527>531-012300-
NORTHEAST HIGHLANDS/NORTHEAST PLAINS

CITY           SKY/WX    TMP DP  RH WIND       PRES   REMARKS
LAS VEGAS      CLOUDY    32  30  92 S21G26    30.05F WCI  20
RATON          SUNNY     39  26  59 N3        30.04R
CLAYTON        PTSUNNY   34  20  56 N14       30.12R WCI  25

$$
NMZ532>537-012300-
EASTCENTRAL PLAINS

CITY           SKY/WX    TMP DP  RH WIND       PRES   REMARKS
TUCUMCARI      CLOUDY    45  26  47 E13       30.11S
CANNON AFB     NOT AVBL
CLOVIS AIRPORT SUNNY     45  25  45 NE13      30.12S

$$
NMZ028-029-538-012300-
SOUTHEAST PLAINS

CITY           SKY/WX    TMP DP  RH WIND       PRES   REMARKS
ROSWELL        CLOUDY    50  33  52 CALM      30.13R
ARTESIA        CLOUDY    50  37  62 NE3       30.14S
CARLSBAD       CLOUDY    52  36  54 E3        30.13S
HOBBS          PTSUNNY   48  36  61 N13       30.14R


$$



USA.gov is the U.S. government's official web portal to all federal, state and local government web resources and services.